[[{"header":{"parameterUnit":"m.s-1","parameterCategory":1,"la1":30.2992,"la2":30.254,"lo1":-89.0895,"lo2":-89.0443,"dy":0.0025,"dx":0.0025,"nx":19,"ny":19,"refTime":"2026-03-18T09:00:00:Z","depth":0,"parameterNumber":2,"parameterNumberName":"U-component_of_WINDS"},"data":[0,0,0,0.4342,0.4341,0.4319,0.4319,0.4283,0.4282,0,0,0,0,0,0,0,0,0,0,0,0.4345,0.4345,0.4342,0.4341,0.4319,0.4319,0.4283,0.4282,0,0,0,0,0,0,0,0,0,0,0,0.4345,0.4345,0.4345,0.4341,0.4319,0.4319,0.4283,0.4302,0,0,0,0,0,0,0,0,0,0,0.4325,0.4326,0.4345,0.4345,0.4341,0.4319,0.4319,0.4303,0.4301,0.429,0,0.4282,0,0.4282,0.428,0.428,0,0,0,0.4343,0.4328,0.4324,0.4345,0.4341,0.4319,0.4329,0.4302,0.4299,0.4287,0.4281,0.428,0.4281,0.4279,0.4279,0.4215,0.4215,0,0,0.4344,0.4339,0.4326,0.4323,0.4328,0.433,0.4329,0.43,0.4293,0.4281,0.4279,0.428,0.4279,0.4279,0.4216,0.4215,0,0,0,0.4346,0.434,0.4338,0.4324,0.4321,0.4329,0.4328,0.4294,0.4294,0.4279,0.428,0.4279,0.4278,0.4216,0.4216,0.4192,0,0,0,0.4347,0.4342,0.4338,0.4335,0.4321,0.4308,0.4322,0.4296,0.4293,0.428,0.4279,0.4278,0.4217,0.4216,0.4194,0.4181,0,0,0,0.4348,0.4342,0.4338,0.4335,0.4326,0.4308,0.4306,0.4295,0.4293,0.428,0.4278,0.4217,0.4216,0.4195,0.4183,0.4161,0,0,0,0.4346,0.4317,0.4337,0.4305,0.4326,0.4295,0.4307,0.4283,0.4269,0.4279,0.4217,0.4216,0.4195,0.4185,0.4163,0.414,0.4131,0,0,0.4307,0.4312,0.4294,0.4311,0.4275,0.4299,0.4259,0.4249,0.4251,0.4227,0.4225,0.4193,0.4183,0.4161,0.4086,0.4079,0,0,0,0.4279,0.4266,0.4257,0.4244,0.4237,0.4229,0.4227,0.4223,0.4202,0.4239,0.4181,0.4175,0.4162,0.4151,0.4145,0.4133,0.4211,0.4211,0.4212,0.4215,0.4221,0.4189,0.4192,0.4179,0.4176,0.4165,0.4159,0.4169,0.4155,0.4146,0.4101,0.4088,0.4084,0.4071,0.4137,0.4137,0.4137,0.4137,0.4156,0.4136,0.4149,0.4124,0.4129,0.4106,0.4102,0.4109,0.4088,0.4107,0.4096,0.4115,0.4076,0.4065,0.4135,0.4136,0.4136,0.4136,0.4136,0.4112,0.4104,0.4101,0.4082,0.4066,0.4069,0.4048,0.4054,0.4059,0.4048,0.4039,0.4039,0.4038,0.4044,0.4044,0.4043,0.4043,0.4043,0.4043,0.4068,0.4065,0.4047,0.4037,0.4029,0.4018,0.4016,0.4007,0.3998,0.4004,0.4004,0.4012,0.4072,0.4085,0.404,0.4041,0.4041,0.4042,0.4042,0.4001,0.4017,0.3989,0.3981,0.3969,0.3951,0.396,0.3941,0.3935,0.3923,0.3935,0.3979,0.3984,0.3989,0.4,0.3936,0.3936,0.3936,0.3936,0.3962,0.3967,0.3939,0.3925,0.3912,0.3916,0.3882,0.3879,0.3878,0.3874,0.3884,0.39,0.3905,0.3907,0.3914,0.3924,0.3842,0.3841,0.3841,0.3921,0.3924,0.3894,0.3895,0.3886,0.3877,0.3844,0.3825,0.3828,0.3838,0.387,0.3874,0.3899,0.3908,0.3916,0.3926,0.3945,0,0]},{"header":{"parameterUnit":"m.s-1","parameterCategory":1,"la1":30.2992,"la2":30.254,"lo1":-89.0895,"lo2":-89.0443,"dy":0.0025,"dx":0.0025,"nx":19,"ny":19,"refTime":"2026-03-18T09:00:00:Z","depth":0,"parameterNumber":3,"parameterNumberName":"V-component_of_WINDS"},"data":[0,0,0,0.7647,0.7647,0.7634,0.7634,0.7625,0.7625,0,0,0,0,0,0,0,0,0,0,0,0.7657,0.7657,0.7647,0.7647,0.7634,0.7634,0.7625,0.7625,0,0,0,0,0,0,0,0,0,0,0,0.7657,0.7657,0.7657,0.7647,0.7634,0.7634,0.7625,0.7631,0,0,0,0,0,0,0,0,0,0,0.7643,0.7658,0.7657,0.7657,0.7647,0.7634,0.7634,0.7632,0.7631,0.7634,0,0.764,0,0.7632,0.7624,0.7624,0,0,0,0.7642,0.7659,0.765,0.7658,0.7647,0.7634,0.7639,0.7631,0.763,0.7633,0.7639,0.7639,0.7632,0.7624,0.7624,0.766,0.766,0,0,0.7643,0.7658,0.765,0.765,0.7654,0.7639,0.7638,0.7631,0.7638,0.7639,0.7638,0.7632,0.7624,0.7624,0.7659,0.766,0,0,0,0.7648,0.7659,0.765,0.765,0.7648,0.7639,0.7638,0.7638,0.7634,0.7638,0.7632,0.7624,0.7624,0.7659,0.766,0.7693,0,0,0,0.7649,0.7662,0.765,0.7659,0.7648,0.7643,0.7646,0.7635,0.7633,0.7632,0.7624,0.7624,0.7659,0.7659,0.7691,0.7706,0,0,0,0.7656,0.7662,0.7663,0.766,0.7655,0.7643,0.7638,0.7634,0.7629,0.7624,0.7624,0.7658,0.7659,0.769,0.7703,0.7719,0,0,0,0.7668,0.7693,0.7664,0.7689,0.7655,0.7664,0.7638,0.7644,0.7644,0.7624,0.7659,0.766,0.7689,0.7702,0.7717,0.7734,0.7743,0,0,0.7708,0.7699,0.7712,0.7685,0.7703,0.7665,0.7687,0.7673,0.7658,0.766,0.766,0.7692,0.7703,0.7718,0.7788,0.7795,0,0,0,0.773,0.774,0.7741,0.7742,0.7732,0.7723,0.7704,0.7698,0.7698,0.7663,0.7701,0.7708,0.7716,0.7723,0.7729,0.7735,0.7664,0.7664,0.7664,0.7808,0.7788,0.7808,0.7787,0.7787,0.7766,0.7764,0.7752,0.7733,0.7742,0.7742,0.7787,0.7796,0.78,0.7806,0.775,0.775,0.775,0.775,0.7864,0.7874,0.7846,0.7856,0.7834,0.7841,0.7821,0.7806,0.7808,0.7785,0.7792,0.7767,0.7809,0.7812,0.7753,0.7752,0.7752,0.7752,0.7751,0.7912,0.7913,0.7906,0.7903,0.7903,0.788,0.7883,0.7863,0.7844,0.785,0.7847,0.7846,0.7842,0.785,0.785,0.7851,0.7851,0.7851,0.7851,0.7965,0.7955,0.7961,0.7951,0.7948,0.7941,0.7918,0.7914,0.7904,0.7889,0.7888,0.7866,0.7817,0.7804,0.7853,0.7853,0.7853,0.7852,0.7852,0.8028,0.801,0.8019,0.8016,0.8001,0.8001,0.7975,0.7968,0.7961,0.7963,0.7939,0.7906,0.7895,0.789,0.7879,0.7944,0.7944,0.7944,0.7944,0.8068,0.806,0.8064,0.806,0.8053,0.803,0.8038,0.802,0.7999,0.7993,0.798,0.7965,0.7961,0.7951,0.7945,0.7935,0.8013,0.8013,0.8013,0.8105,0.8095,0.8107,0.8087,0.8073,0.8061,0.8068,0.8062,0.8034,0.8015,0.7987,0.7984,0.7959,0.7952,0.7933,0.7923,0.7904,0,0]}]]